Temp: 0.3°C   Baro: 1049.4mb
  Wind: 0.0mph   Dir: NW (316°)
  Rain: 0.0mm (0.0mm/hr)
  Solar: 0W/m2  Hum: 93%
 
Bath Spa Weather Historical Data
Daily Summary for December 16, 2019 Units:  Metric    English   Both
Next Day »
Daily Weekly Monthly Yearly Custom
  High: Low: Average:
Temperature: 9.8 °C 4.5 °C 6.2 °C
Dew Point: 6.1 °C 2.8 °C 4.2 °C
Humidity: 93% 77% 87%
Wind Speed: 16.1km/h 0.0km/h 1.5km/h
Wind Gust: 20.9km/h - -
Wind direction- - SW
Pressure: 1000.2 hPa 996.8 hPa -
Precipitation: 0.0 mm    
Historical Graphs
 
 
Tabular Data for December 16, 2019
Time Temperature Dew Point Pressure Wind direction Wind Speed Wind Gust Humidity Rainfall Rate (Hourly) solar
00:00 6.4 °C 4.4 °C 996.8 hPa SSW 6.4 km/h 11.3 km/h 87% 0.0 mm 0.00 W/m2
00:05 6.6 °C 4.8 °C 996.8 hPa South 16.1 km/h 16.1 km/h 88% 0.0 mm 0.00 W/m2
00:10 6.6 °C 4.8 °C 996.8 hPa SW 3.2 km/h 11.3 km/h 88% 0.0 mm 0.00 W/m2
00:15 6.7 °C 4.7 °C 996.8 hPa SW 3.2 km/h 9.7 km/h 87% 0.0 mm 0.00 W/m2
00:20 6.7 °C 4.7 °C 996.8 hPa SW 1.4 km/h 11.3 km/h 87% 0.0 mm 0.00 W/m2
00:26 6.7 °C 4.7 °C 996.8 hPa SSW 6.4 km/h 11.3 km/h 87% 0.0 mm 0.00 W/m2
00:30 6.8 °C 4.8 °C 996.8 hPa SSW 13.0 km/h 14.5 km/h 87% 0.0 mm 0.00 W/m2
00:35 6.8 °C 4.6 °C 996.8 hPa SSW 4.7 km/h 11.3 km/h 86% 0.0 mm 0.00 W/m2
00:40 6.9 °C 4.7 °C 996.8 hPa SSW 9.7 km/h 14.5 km/h 86% 0.0 mm 0.00 W/m2
00:45 6.9 °C 4.6 °C 996.8 hPa SW 7.9 km/h 20.9 km/h 85% 0.0 mm 0.00 W/m2
00:50 6.9 °C 4.4 °C 997.2 hPa WSW 9.7 km/h 12.9 km/h 84% 0.0 mm 0.00 W/m2
00:55 6.8 °C 4.3 °C 997.2 hPa SW 9.7 km/h 14.5 km/h 84% 0.0 mm 0.00 W/m2
01:01 6.7 °C 4.2 °C 997.2 hPa West 3.2 km/h 9.7 km/h 84% 0.0 mm 0.00 W/m2
01:05 6.7 °C 4.2 °C 997.2 hPa WSW 6.4 km/h 12.9 km/h 84% 0.0 mm 0.00 W/m2
01:10 6.6 °C 4.1 °C 997.2 hPa West 7.9 km/h 9.7 km/h 84% 0.0 mm 0.00 W/m2
01:15 6.6 °C 4.1 °C 997.2 hPa WSW 6.4 km/h 8.0 km/h 84% 0.0 mm 0.00 W/m2
01:20 6.6 °C 4.1 °C 997.2 hPa West 3.2 km/h 9.7 km/h 84% 0.0 mm 0.00 W/m2
01:25 6.6 °C 4.1 °C 997.2 hPa West 6.4 km/h 9.7 km/h 84% 0.0 mm 0.00 W/m2
01:30 6.5 °C 4.0 °C 997.2 hPa West 7.9 km/h 9.7 km/h 84% 0.0 mm 0.00 W/m2
01:35 6.5 °C 4.2 °C 997.2 hPa West 6.4 km/h 6.4 km/h 85% 0.0 mm 0.00 W/m2
01:40 6.5 °C 4.2 °C 997.2 hPa Calm   6.4 km/h 85% 0.0 mm 0.00 W/m2
01:45 6.5 °C 4.2 °C 997.2 hPa WSW 4.7 km/h 6.4 km/h 85% 0.0 mm 0.00 W/m2
01:50 6.4 °C 4.1 °C 997.2 hPa WSW 1.4 km/h 8.0 km/h 85% 0.0 mm 0.00 W/m2
01:55 6.4 °C 4.1 °C 997.5 hPa WSW 3.2 km/h 4.8 km/h 85% 0.0 mm 0.00 W/m2
02:00 6.3 °C 4.0 °C 997.5 hPa WSW 6.4 km/h 12.9 km/h 85% 0.0 mm 0.00 W/m2
02:05 6.3 °C 4.0 °C 997.5 hPa Calm   3.2 km/h 85% 0.0 mm 0.00 W/m2
02:10 6.2 °C 3.9 °C 997.5 hPa West 6.4 km/h 11.3 km/h 85% 0.0 mm 0.00 W/m2
02:15 6.3 °C 4.0 °C 997.5 hPa SW 6.4 km/h 8.0 km/h 85% 0.0 mm 0.00 W/m2
02:20 6.3 °C 4.0 °C 997.9 hPa SW 7.9 km/h 12.9 km/h 85% 0.0 mm 0.00 W/m2
02:25 6.4 °C 4.1 °C 997.9 hPa Calm   9.7 km/h 85% 0.0 mm 0.00 W/m2
02:30 6.3 °C 3.8 °C 997.9 hPa SW 3.2 km/h 9.7 km/h 84% 0.0 mm 0.00 W/m2
02:35 6.4 °C 3.9 °C 997.9 hPa SSW 3.2 km/h 16.1 km/h 84% 0.0 mm 0.00 W/m2
02:40 6.4 °C 3.9 °C 997.9 hPa WSW 4.7 km/h 8.0 km/h 84% 0.0 mm 0.00 W/m2
02:45 6.4 °C 3.9 °C 997.9 hPa SW 6.4 km/h 8.0 km/h 84% 0.0 mm 0.00 W/m2
02:50 6.4 °C 3.9 °C 997.5 hPa SW 3.2 km/h 9.7 km/h 84% 0.0 mm 0.00 W/m2
02:55 6.6 °C 3.9 °C 997.9 hPa SSW 4.7 km/h 12.9 km/h 83% 0.0 mm 0.00 W/m2
03:00 6.6 °C 3.9 °C 997.9 hPa SW 4.7 km/h 16.1 km/h 83% 0.0 mm 0.00 W/m2
03:05 6.7 °C 3.8 °C 997.9 hPa SW 6.4 km/h 12.9 km/h 82% 0.0 mm 0.00 W/m2
03:10 6.7 °C 3.8 °C 997.9 hPa SW 6.4 km/h 9.7 km/h 82% 0.0 mm 0.00 W/m2
03:15 6.7 °C 3.8 °C 997.9 hPa SW 3.2 km/h 14.5 km/h 82% 0.0 mm 0.00 W/m2
03:20 6.6 °C 3.7 °C 997.9 hPa SW 3.2 km/h 8.0 km/h 82% 0.0 mm 0.00 W/m2
03:25 6.5 °C 3.6 °C 997.9 hPa SSW 9.7 km/h 9.7 km/h 82% 0.0 mm 0.00 W/m2
03:30 6.3 °C 3.5 °C 997.9 hPa SSW 3.2 km/h 6.4 km/h 82% 0.0 mm 0.00 W/m2
03:35 6.3 °C 3.6 °C 997.9 hPa Calm   8.0 km/h 83% 0.0 mm 0.00 W/m2
03:40 6.2 °C 3.5 °C 997.9 hPa SSW 3.2 km/h 4.8 km/h 83% 0.0 mm 0.00 W/m2
03:45 6.1 °C 3.4 °C 997.9 hPa SSW 6.4 km/h 8.0 km/h 83% 0.0 mm 0.00 W/m2
03:50 6.1 °C 3.6 °C 997.9 hPa Calm   8.0 km/h 84% 0.0 mm 0.00 W/m2
03:55 6.1 °C 3.6 °C 997.9 hPa SSW 3.2 km/h 8.0 km/h 84% 0.0 mm 0.00 W/m2
04:00 6.1 °C 3.6 °C 997.9 hPa SSW 3.2 km/h 6.4 km/h 84% 0.0 mm 0.00 W/m2
04:05 6.0 °C 3.5 °C 997.9 hPa Calm   11.3 km/h 84% 0.0 mm 0.00 W/m2
04:10 6.0 °C 3.5 °C 997.9 hPa SSW 1.4 km/h 8.0 km/h 84% 0.0 mm 0.00 W/m2
04:15 6.0 °C 3.7 °C 997.9 hPa Calm   1.6 km/h 85% 0.0 mm 0.00 W/m2
04:20 6.1 °C 3.6 °C 997.9 hPa SSW 3.2 km/h 6.4 km/h 84% 0.0 mm 0.00 W/m2
04:25 6.2 °C 3.7 °C 997.9 hPa SSW 4.7 km/h 6.4 km/h 84% 0.0 mm 0.00 W/m2
04:30 6.2 °C 3.7 °C 997.9 hPa SSW 3.2 km/h 6.4 km/h 84% 0.0 mm 0.00 W/m2
04:35 6.2 °C 3.7 °C 997.9 hPa Calm   4.8 km/h 84% 0.0 mm 0.00 W/m2
04:40 6.1 °C 3.6 °C 997.9 hPa Calm   4.8 km/h 84% 0.0 mm 0.00 W/m2
04:45 6.1 °C 3.6 °C 997.9 hPa Calm   3.2 km/h 84% 0.0 mm 0.00 W/m2
04:50 6.0 °C 3.7 °C 997.9 hPa Calm   1.6 km/h 85% 0.0 mm 0.00 W/m2
04:55 6.1 °C 3.8 °C 997.9 hPa Calm   11.3 km/h 85% 0.0 mm 0.00 W/m2
05:00 6.0 °C 3.7 °C 997.9 hPa SSW 1.4 km/h 3.2 km/h 85% 0.0 mm 0.00 W/m2
05:05 5.9 °C 3.6 °C 997.9 hPa Calm   3.2 km/h 85% 0.0 mm 0.00 W/m2
05:10 5.9 °C 3.6 °C 997.9 hPa SSW 4.7 km/h 6.4 km/h 85% 0.0 mm 0.00 W/m2
05:15 5.9 °C 3.6 °C 998.2 hPa Calm   8.0 km/h 85% 0.0 mm 0.00 W/m2
05:20 5.9 °C 3.6 °C 998.2 hPa SSW 1.4 km/h 11.3 km/h 85% 0.0 mm 0.00 W/m2
05:25 6.0 °C 3.7 °C 998.2 hPa SSW 3.2 km/h 6.4 km/h 85% 0.0 mm 0.00 W/m2
05:30 6.0 °C 3.7 °C 998.2 hPa Calm   12.9 km/h 85% 0.0 mm 0.00 W/m2
05:35 6.1 °C 3.8 °C 998.2 hPa Calm   9.7 km/h 85% 0.0 mm 0.00 W/m2
05:40 5.9 °C 3.6 °C 998.2 hPa Calm     85% 0.0 mm 0.00 W/m2
05:45 5.8 °C 3.5 °C 998.2 hPa Calm   9.7 km/h 85% 0.0 mm 0.00 W/m2
05:50 5.9 °C 3.6 °C 998.2 hPa SSW 3.2 km/h 11.3 km/h 85% 0.0 mm 0.00 W/m2
05:55 6.0 °C 3.7 °C 998.2 hPa SW 3.2 km/h 6.4 km/h 85% 0.0 mm 0.00 W/m2
06:00 6.0 °C 3.7 °C 998.2 hPa Calm   3.2 km/h 85% 0.0 mm 0.00 W/m2
06:05 5.8 °C 3.5 °C 998.2 hPa SW 14.5 km/h 14.5 km/h 85% 0.0 mm 0.00 W/m2
06:10 5.8 °C 3.5 °C 998.2 hPa Calm   3.2 km/h 85% 0.0 mm 0.00 W/m2
06:15 5.8 °C 3.5 °C 998.2 hPa Calm   3.2 km/h 85% 0.0 mm 0.00 W/m2
06:20 5.6 °C 3.3 °C 998.2 hPa Calm   4.8 km/h 85% 0.0 mm 0.00 W/m2
06:25 5.5 °C 3.2 °C 998.2 hPa SW 8.0 km/h 8.0 km/h 85% 0.0 mm 0.00 W/m2
06:30 5.4 °C 3.1 °C 998.5 hPa SW 12.9 km/h 12.9 km/h 85% 0.0 mm 0.00 W/m2
06:35 5.3 °C 3.1 °C 998.5 hPa Calm     86% 0.0 mm 0.00 W/m2
06:40 5.3 °C 3.1 °C 998.5 hPa Calm     86% 0.0 mm 0.00 W/m2
06:45 5.2 °C 3.1 °C 998.5 hPa SW 3.2 km/h 9.7 km/h 86% 0.0 mm 0.00 W/m2
06:50 5.2 °C 3.2 °C 998.5 hPa Calm     87% 0.0 mm 0.00 W/m2
06:55 5.2 °C 3.2 °C 998.5 hPa SW 6.4 km/h 9.7 km/h 87% 0.0 mm 0.00 W/m2
07:00 5.2 °C 3.2 °C 998.5 hPa SW 1.4 km/h 4.8 km/h 87% 0.0 mm 0.00 W/m2
07:05 5.1 °C 3.1 °C 998.5 hPa Calm   1.6 km/h 87% 0.0 mm 0.00 W/m2
07:10 5.1 °C 3.1 °C 998.5 hPa Calm   6.4 km/h 87% 0.0 mm 0.00 W/m2
07:15 5.1 °C 3.1 °C 998.5 hPa Calm   1.6 km/h 87% 0.0 mm 0.00 W/m2
07:20 5.1 °C 3.1 °C 998.5 hPa Calm   12.9 km/h 87% 0.0 mm 0.00 W/m2
07:25 4.9 °C 2.9 °C 998.5 hPa Calm     87% 0.0 mm 0.00 W/m2
07:30 4.8 °C 2.8 °C 998.9 hPa SW 3.2 km/h 8.0 km/h 87% 0.0 mm 0.00 W/m2
07:35 4.8 °C 3.0 °C 998.9 hPa Calm   4.8 km/h 88% 0.0 mm 0.00 W/m2
07:40 4.9 °C 3.1 °C 998.9 hPa Calm     88% 0.0 mm 0.00 W/m2
07:45 5.0 °C 3.2 °C 998.9 hPa Calm     88% 0.0 mm 0.00 W/m2
07:50 4.7 °C 2.9 °C 999.2 hPa SW 3.2 km/h 6.4 km/h 88% 0.0 mm 0.00 W/m2
07:55 4.8 °C 3.0 °C 999.2 hPa WSW 4.7 km/h 12.9 km/h 88% 0.0 mm 0.00 W/m2
08:00 4.7 °C 2.9 °C 999.2 hPa WSW 6.4 km/h 9.7 km/h 88% 0.0 mm 0.00 W/m2
08:05 4.8 °C 3.1 °C 999.2 hPa WSW 1.4 km/h 16.1 km/h 89% 0.0 mm 0.00 W/m2
08:10 5.0 °C 3.3 °C 999.2 hPa Calm     89% 0.0 mm 0.00 W/m2
08:15 4.9 °C 3.2 °C 999.2 hPa WSW 7.9 km/h 9.7 km/h 89% 0.0 mm 0.00 W/m2
08:20 5.0 °C 3.3 °C 999.5 hPa Calm   9.7 km/h 89% 0.0 mm 0.00 W/m2
08:25 4.9 °C 3.2 °C 999.5 hPa WSW 3.2 km/h 6.4 km/h 89% 0.0 mm 7.00 W/m2
08:30 4.9 °C 3.2 °C 999.5 hPa Calm   1.6 km/h 89% 0.0 mm 9.00 W/m2
08:35 4.8 °C 3.1 °C 999.5 hPa Calm     89% 0.0 mm 9.00 W/m2
08:40 4.8 °C 3.1 °C 999.5 hPa Calm     89% 0.0 mm 11.00 W/m2
08:45 4.6 °C 2.8 °C 999.9 hPa Calm     88% 0.0 mm 12.00 W/m2
08:50 4.6 °C 2.9 °C 999.9 hPa Calm     89% 0.0 mm 16.00 W/m2
08:55 4.6 °C 2.9 °C 999.5 hPa Calm     89% 0.0 mm 18.00 W/m2
09:00 4.6 °C 2.9 °C 999.9 hPa WSW 3.2 km/h 3.2 km/h 89% 0.0 mm 19.00 W/m2
09:05 4.5 °C 2.8 °C 999.9 hPa Calm   6.4 km/h 89% 0.0 mm 25.00 W/m2
09:10 4.6 °C 2.9 °C 999.9 hPa WSW 4.7 km/h 6.4 km/h 89% 0.0 mm 26.00 W/m2
09:15 4.6 °C 2.9 °C 999.9 hPa WSW 6.4 km/h 6.4 km/h 89% 0.0 mm 30.00 W/m2
09:20 4.8 °C 3.3 °C 999.9 hPa WSW 6.4 km/h 8.0 km/h 90% 0.0 mm 35.00 W/m2
09:25 4.8 °C 3.3 °C 999.9 hPa Calm   3.2 km/h 90% 0.0 mm 39.00 W/m2
09:30 4.8 °C 3.3 °C 999.9 hPa Calm   4.8 km/h 90% 0.0 mm 37.00 W/m2
09:35 4.8 °C 3.3 °C 999.9 hPa Calm   3.2 km/h 90% 0.0 mm 40.00 W/m2
09:40 4.9 °C 3.4 °C 999.9 hPa WSW 4.8 km/h 4.8 km/h 90% 0.0 mm 42.00 W/m2
09:45 4.9 °C 3.4 °C 999.9 hPa WSW 3.2 km/h 3.2 km/h 90% 0.0 mm 46.00 W/m2
09:50 5.0 °C 3.5 °C 1000.2 hPa Calm   4.8 km/h 90% 0.0 mm 47.00 W/m2
09:55 5.1 °C 3.6 °C 1000.2 hPa Calm   6.4 km/h 90% 0.0 mm 53.00 W/m2
10:00 5.0 °C 3.5 °C 1000.2 hPa Calm     90% 0.0 mm 53.00 W/m2
10:05 5.0 °C 3.5 °C 1000.2 hPa Calm     90% 0.0 mm 51.00 W/m2
10:11 5.1 °C 3.6 °C 1000.2 hPa Calm     90% 0.0 mm 60.00 W/m2
10:15 5.2 °C 3.7 °C 1000.2 hPa Calm     90% 0.0 mm 63.00 W/m2
10:20 5.2 °C 3.7 °C 1000.2 hPa Calm     90% 0.0 mm 67.00 W/m2
10:25 5.3 °C 3.8 °C 1000.2 hPa Calm     90% 0.0 mm 69.00 W/m2
10:30 5.3 °C 3.8 °C 1000.2 hPa Calm     90% 0.0 mm 77.00 W/m2
10:35 5.5 °C 4.0 °C 1000.2 hPa Calm     90% 0.0 mm 77.00 W/m2
10:40 5.5 °C 4.0 °C 1000.2 hPa Calm     90% 0.0 mm 83.00 W/m2
10:45 5.6 °C 4.1 °C 1000.2 hPa Calm     90% 0.0 mm 90.00 W/m2
10:50 5.7 °C 4.2 °C 1000.2 hPa Calm     90% 0.0 mm 97.00 W/m2
10:55 5.8 °C 4.3 °C 1000.2 hPa Calm     90% 0.0 mm 105.00 W/m2
11:00 5.9 °C 4.4 °C 1000.2 hPa Calm     90% 0.0 mm 104.00 W/m2
11:05 6.1 °C 4.6 °C 1000.2 hPa Calm     90% 0.0 mm 88.00 W/m2
11:11 6.3 °C 4.9 °C 1000.2 hPa Calm     91% 0.0 mm 104.00 W/m2
11:15 6.3 °C 4.9 °C 1000.2 hPa Calm     91% 0.0 mm 105.00 W/m2
11:20 6.4 °C 4.9 °C 1000.2 hPa Calm     90% 0.0 mm 105.00 W/m2
11:25 6.5 °C 5.0 °C 999.9 hPa Calm   1.6 km/h 90% 0.0 mm 128.00 W/m2
11:30 6.6 °C 5.1 °C 999.9 hPa Calm     90% 0.0 mm 141.00 W/m2
11:35 6.8 °C 5.3 °C 999.9 hPa Calm   1.6 km/h 90% 0.0 mm 102.00 W/m2
11:40 6.9 °C 5.4 °C 999.5 hPa Calm     90% 0.0 mm 98.00 W/m2
11:45 7.1 °C 5.6 °C 999.5 hPa Calm     90% 0.0 mm 109.00 W/m2
11:50 7.2 °C 5.7 °C 999.5 hPa Calm     90% 0.0 mm 141.00 W/m2
11:55 7.5 °C 6.0 °C 999.5 hPa Calm     90% 0.0 mm 123.00 W/m2
12:00 7.7 °C 6.0 °C 999.5 hPa Calm   1.6 km/h 89% 0.0 mm 118.00 W/m2
12:05 7.7 °C 5.8 °C 999.5 hPa Calm     88% 0.0 mm 107.00 W/m2
12:10 7.6 °C 5.6 °C 999.5 hPa WSW 3.2 km/h 3.2 km/h 87% 0.0 mm 111.00 W/m2
12:15 7.7 °C 5.3 °C 999.5 hPa SW 3.2 km/h 4.8 km/h 85% 0.0 mm 153.00 W/m2
12:20 7.8 °C 5.1 °C 999.5 hPa Calm   1.6 km/h 83% 0.0 mm 141.00 W/m2
12:25 7.9 °C 4.8 °C 999.5 hPa Calm   3.2 km/h 81% 0.0 mm 132.00 W/m2
12:30 8.0 °C 4.8 °C 999.5 hPa SW 3.2 km/h 8.0 km/h 80% 0.0 mm 155.00 W/m2
12:35 8.0 °C 4.8 °C 999.5 hPa Calm   3.2 km/h 80% 0.0 mm 171.00 W/m2
12:40 8.3 °C 5.1 °C 999.5 hPa SW 4.7 km/h 8.0 km/h 80% 0.0 mm 165.00 W/m2
12:45 8.6 °C 5.2 °C 999.2 hPa SW 1.4 km/h 3.2 km/h 79% 0.0 mm 190.00 W/m2
12:50 9.0 °C 5.7 °C 999.5 hPa SW 1.4 km/h 3.2 km/h 80% 0.0 mm 195.00 W/m2
12:55 8.9 °C 5.1 °C 999.2 hPa SW 3.2 km/h 4.8 km/h 77% 0.0 mm 165.00 W/m2
13:00 8.8 °C 5.2 °C 999.2 hPa Calm   1.6 km/h 78% 0.0 mm 195.00 W/m2
13:05 9.0 °C 5.2 °C 999.2 hPa Calm   1.6 km/h 77% 0.0 mm 171.00 W/m2
13:10 9.2 °C 5.6 °C 999.2 hPa Calm   1.6 km/h 78% 0.0 mm 156.00 W/m2
13:15 9.4 °C 5.6 °C 999.2 hPa Calm   3.2 km/h 77% 0.0 mm 134.00 W/m2
13:20 9.1 °C 5.3 °C 999.2 hPa Calm   4.8 km/h 77% 0.0 mm 135.00 W/m2
13:25 9.5 °C 5.9 °C 999.2 hPa SW 1.4 km/h 9.7 km/h 78% 0.0 mm 134.00 W/m2
13:30 9.8 °C 6.1 °C 999.2 hPa Calm     78% 0.0 mm 90.00 W/m2
13:35 9.6 °C 5.8 °C 999.2 hPa Calm     77% 0.0 mm 97.00 W/m2
13:40 9.1 °C 5.3 °C 999.2 hPa SSW 3.2 km/h 16.1 km/h 77% 0.0 mm 93.00 W/m2
13:45 8.6 °C 5.0 °C 999.2 hPa Calm   14.5 km/h 78% 0.0 mm 102.00 W/m2
13:50 8.6 °C 5.2 °C 998.9 hPa South 7.9 km/h 14.5 km/h 79% 0.0 mm 111.00 W/m2
13:55 8.6 °C 5.2 °C 998.9 hPa South 3.2 km/h 6.4 km/h 79% 0.0 mm 118.00 W/m2
14:00 8.7 °C 5.3 °C 998.9 hPa Calm   12.9 km/h 79% 0.0 mm 97.00 W/m2
14:05 8.6 °C 5.2 °C 998.9 hPa Calm   6.4 km/h 79% 0.0 mm 84.00 W/m2
14:10 8.6 °C 5.2 °C 998.9 hPa South 3.2 km/h 6.4 km/h 79% 0.0 mm 84.00 W/m2
14:15 8.7 °C 5.3 °C 998.9 hPa Calm   9.7 km/h 79% 0.0 mm 65.00 W/m2
14:20 8.6 °C 5.2 °C 998.9 hPa South 1.4 km/h 4.8 km/h 79% 0.0 mm 62.00 W/m2
14:25 8.5 °C 5.1 °C 998.9 hPa Calm   9.7 km/h 79% 0.0 mm 67.00 W/m2
14:30 8.4 °C 5.0 °C 998.9 hPa Calm   1.6 km/h 79% 0.0 mm 65.00 W/m2
14:35 8.4 °C 5.0 °C 998.9 hPa Calm     79% 0.0 mm 56.00 W/m2
14:40 8.6 °C 5.3 °C 998.9 hPa South 6.4 km/h 6.4 km/h 80% 0.0 mm 42.00 W/m2
14:45 8.6 °C 5.3 °C 998.5 hPa Calm     80% 0.0 mm 40.00 W/m2
14:50 8.6 °C 5.3 °C 998.9 hPa Calm     80% 0.0 mm 37.00 W/m2
14:55 8.6 °C 5.5 °C 998.9 hPa Calm     81% 0.0 mm 39.00 W/m2
15:00 8.6 °C 5.5 °C 998.9 hPa Calm     81% 0.0 mm 40.00 W/m2
15:05 8.5 °C 5.4 °C 998.9 hPa South 3.2 km/h 3.2 km/h 81% 0.0 mm 37.00 W/m2
15:10 8.4 °C 5.3 °C 998.9 hPa Calm     81% 0.0 mm 26.00 W/m2
15:15 8.1 °C 5.2 °C 998.9 hPa Calm   1.6 km/h 82% 0.0 mm 25.00 W/m2
15:20 7.9 °C 5.0 °C 998.9 hPa Calm     82% 0.0 mm 19.00 W/m2
15:25 7.9 °C 5.2 °C 998.9 hPa South 1.4 km/h 1.6 km/h 83% 0.0 mm 16.00 W/m2
15:30 7.8 °C 5.1 °C 998.5 hPa Calm     83% 0.0 mm 16.00 W/m2
15:35 7.7 °C 5.2 °C 998.9 hPa Calm     84% 0.0 mm 12.00 W/m2
15:41 7.6 °C 5.1 °C 998.9 hPa Calm     84% 0.0 mm 11.00 W/m2
15:45 7.4 °C 4.9 °C 998.9 hPa Calm     84% 0.0 mm 9.00 W/m2
15:50 7.4 °C 4.9 °C 998.9 hPa Calm     84% 0.0 mm 5.00 W/m2
15:55 7.2 °C 4.8 °C 998.5 hPa Calm     85% 0.0 mm 0.00 W/m2
16:00 7.1 °C 4.7 °C 998.5 hPa Calm     85% 0.0 mm 0.00 W/m2
16:05 7.1 °C 4.9 °C 998.5 hPa Calm     86% 0.0 mm 0.00 W/m2
16:10 6.9 °C 4.7 °C 998.5 hPa Calm     86% 0.0 mm 0.00 W/m2
16:15 6.9 °C 4.7 °C 998.9 hPa Calm     86% 0.0 mm 0.00 W/m2
16:20 6.9 °C 4.7 °C 998.5 hPa Calm     86% 0.0 mm 0.00 W/m2
16:25 6.8 °C 4.6 °C 998.5 hPa Calm     86% 0.0 mm 0.00 W/m2
16:30 6.8 °C 4.6 °C 998.5 hPa Calm     86% 0.0 mm 0.00 W/m2
16:35 6.7 °C 4.7 °C 998.5 hPa Calm     87% 0.0 mm 0.00 W/m2
16:40 6.6 °C 4.6 °C 998.5 hPa Calm     87% 0.0 mm 0.00 W/m2
16:45 6.4 °C 4.4 °C 998.5 hPa Calm     87% 0.0 mm 0.00 W/m2
16:50 6.3 °C 4.3 °C 998.5 hPa Calm     87% 0.0 mm 0.00 W/m2
16:55 6.3 °C 4.5 °C 998.9 hPa Calm     88% 0.0 mm 0.00 W/m2
17:00 6.2 °C 4.4 °C 998.5 hPa Calm     88% 0.0 mm 0.00 W/m2
17:05 6.3 °C 4.5 °C 998.9 hPa Calm     88% 0.0 mm 0.00 W/m2
17:10 6.3 °C 4.5 °C 998.5 hPa Calm     88% 0.0 mm 0.00 W/m2
17:15 6.2 °C 4.4 °C 998.5 hPa Calm     88% 0.0 mm 0.00 W/m2
17:20 6.1 °C 4.3 °C 998.5 hPa Calm     88% 0.0 mm 0.00 W/m2
17:25 6.1 °C 4.4 °C 998.5 hPa Calm     89% 0.0 mm 0.00 W/m2
17:30 6.0 °C 4.3 °C 998.5 hPa Calm     89% 0.0 mm 0.00 W/m2
17:35 5.9 °C 4.2 °C 998.5 hPa Calm     89% 0.0 mm 0.00 W/m2
17:40 5.8 °C 4.1 °C 998.5 hPa Calm     89% 0.0 mm 0.00 W/m2
17:45 5.8 °C 4.1 °C 998.5 hPa Calm     89% 0.0 mm 0.00 W/m2
17:50 5.8 °C 4.1 °C 998.5 hPa Calm     89% 0.0 mm 0.00 W/m2
17:55 5.8 °C 4.1 °C 998.5 hPa Calm     89% 0.0 mm 0.00 W/m2
18:00 5.8 °C 4.1 °C 998.5 hPa Calm     89% 0.0 mm 0.00 W/m2
18:05 5.7 °C 4.2 °C 998.5 hPa Calm     90% 0.0 mm 0.00 W/m2
18:10 5.7 °C 4.2 °C 998.5 hPa Calm     90% 0.0 mm 0.00 W/m2
18:15 5.7 °C 4.2 °C 998.5 hPa Calm     90% 0.0 mm 0.00 W/m2
18:20 5.7 °C 4.2 °C 998.2 hPa Calm     90% 0.0 mm 0.00 W/m2
18:25 5.7 °C 4.2 °C 998.2 hPa Calm     90% 0.0 mm 0.00 W/m2
18:30 5.6 °C 4.1 °C 998.5 hPa Calm     90% 0.0 mm 0.00 W/m2
18:35 5.5 °C 4.0 °C 998.5 hPa Calm     90% 0.0 mm 0.00 W/m2
18:40 5.5 °C 4.0 °C 998.5 hPa Calm     90% 0.0 mm 0.00 W/m2
18:45 5.5 °C 4.0 °C 998.5 hPa Calm     90% 0.0 mm 0.00 W/m2
18:50 5.5 °C 4.0 °C 998.5 hPa Calm     90% 0.0 mm 0.00 W/m2
18:55 5.5 °C 4.0 °C 998.5 hPa Calm     90% 0.0 mm 0.00 W/m2
19:00 5.5 °C 4.1 °C 998.2 hPa Calm     91% 0.0 mm 0.00 W/m2
19:05 5.5 °C 4.1 °C 998.5 hPa Calm     91% 0.0 mm 0.00 W/m2
19:10 5.4 °C 4.0 °C 998.2 hPa Calm     91% 0.0 mm 0.00 W/m2
19:15 5.4 °C 4.0 °C 998.5 hPa Calm     91% 0.0 mm 0.00 W/m2
19:20 5.3 °C 4.0 °C 998.2 hPa Calm     91% 0.0 mm 0.00 W/m2
19:26 5.3 °C 4.0 °C 998.2 hPa Calm     91% 0.0 mm 0.00 W/m2
19:30 5.3 °C 4.0 °C 998.5 hPa Calm     91% 0.0 mm 0.00 W/m2
19:35 5.2 °C 3.9 °C 998.5 hPa Calm     91% 0.0 mm 0.00 W/m2
19:40 5.3 °C 4.0 °C 998.5 hPa Calm     91% 0.0 mm 0.00 W/m2
19:45 5.3 °C 4.0 °C 998.5 hPa Calm     91% 0.0 mm 0.00 W/m2
19:50 5.3 °C 4.0 °C 998.5 hPa Calm     91% 0.0 mm 0.00 W/m2
19:55 5.3 °C 4.0 °C 998.2 hPa Calm     91% 0.0 mm 0.00 W/m2
20:00 5.3 °C 4.0 °C 998.2 hPa Calm     91% 0.0 mm 0.00 W/m2
20:05 5.3 °C 4.0 °C 998.2 hPa Calm     91% 0.0 mm 0.00 W/m2
20:11 5.3 °C 4.1 °C 998.2 hPa Calm     92% 0.0 mm 0.00 W/m2
20:15 5.4 °C 4.0 °C 998.2 hPa Calm     91% 0.0 mm 0.00 W/m2
20:20 5.5 °C 4.3 °C 998.2 hPa Calm     92% 0.0 mm 0.00 W/m2
20:25 5.6 °C 4.4 °C 998.2 hPa Calm     92% 0.0 mm 0.00 W/m2
20:30 5.5 °C 4.3 °C 998.2 hPa Calm     92% 0.0 mm 0.00 W/m2
20:35 5.3 °C 4.1 °C 998.2 hPa Calm     92% 0.0 mm 0.00 W/m2
20:40 5.3 °C 4.1 °C 998.2 hPa Calm     92% 0.0 mm 0.00 W/m2
20:45 5.3 °C 4.1 °C 998.2 hPa Calm     92% 0.0 mm 0.00 W/m2
20:50 5.4 °C 4.2 °C 997.9 hPa Calm     92% 0.0 mm 0.00 W/m2
20:55 5.4 °C 4.2 °C 997.9 hPa Calm     92% 0.0 mm 0.00 W/m2
21:00 5.5 °C 4.3 °C 997.9 hPa Calm     92% 0.0 mm 0.00 W/m2
21:05 5.5 °C 4.3 °C 997.9 hPa Calm     92% 0.0 mm 0.00 W/m2
21:10 5.6 °C 4.4 °C 997.9 hPa Calm     92% 0.0 mm 0.00 W/m2
21:15 5.5 °C 4.3 °C 997.9 hPa Calm     92% 0.0 mm 0.00 W/m2
21:20 5.4 °C 4.2 °C 997.9 hPa Calm     92% 0.0 mm 0.00 W/m2
21:25 5.4 °C 4.2 °C 997.9 hPa Calm     92% 0.0 mm 0.00 W/m2
21:30 5.4 °C 4.2 °C 997.9 hPa Calm     92% 0.0 mm 0.00 W/m2
21:35 5.3 °C 4.1 °C 997.9 hPa Calm     92% 0.0 mm 0.00 W/m2
21:40 5.3 °C 4.1 °C 997.9 hPa Calm     92% 0.0 mm 0.00 W/m2
21:45 5.3 °C 4.1 °C 997.9 hPa Calm     92% 0.0 mm 0.00 W/m2
21:50 5.3 °C 4.1 °C 997.5 hPa Calm     92% 0.0 mm 0.00 W/m2
21:55 5.3 °C 4.3 °C 997.5 hPa Calm     93% 0.0 mm 0.00 W/m2
22:00 5.2 °C 4.2 °C 997.5 hPa Calm     93% 0.0 mm 0.00 W/m2
22:05 5.2 °C 4.2 °C 997.5 hPa Calm     93% 0.0 mm 0.00 W/m2
22:10 5.2 °C 4.0 °C 997.5 hPa Calm     92% 0.0 mm 0.00 W/m2
22:15 5.1 °C 3.9 °C 997.5 hPa Calm     92% 0.0 mm 0.00 W/m2
22:20 5.1 °C 4.1 °C 997.5 hPa South 3.2 km/h 3.2 km/h 93% 0.0 mm 0.00 W/m2
22:25 5.1 °C 4.1 °C 997.5 hPa Calm     93% 0.0 mm 0.00 W/m2
22:30 5.1 °C 4.1 °C 997.5 hPa Calm     93% 0.0 mm 0.00 W/m2
22:35 5.1 °C 4.1 °C 997.5 hPa Calm     93% 0.0 mm 0.00 W/m2
22:40 5.1 °C 4.1 °C 997.5 hPa Calm     93% 0.0 mm 0.00 W/m2
22:45 5.1 °C 4.1 °C 997.5 hPa Calm     93% 0.0 mm 0.00 W/m2
22:51 5.1 °C 4.1 °C 997.5 hPa Calm     93% 0.0 mm 0.00 W/m2
22:55 5.1 °C 4.1 °C 997.5 hPa Calm     93% 0.0 mm 0.00 W/m2
23:00 5.1 °C 4.1 °C 997.5 hPa Calm     93% 0.0 mm 0.00 W/m2
23:05 5.1 °C 4.1 °C 997.5 hPa Calm     93% 0.0 mm 0.00 W/m2
23:10 5.1 °C 4.1 °C 997.5 hPa South 1.6 km/h 1.6 km/h 93% 0.0 mm 0.00 W/m2
23:15 5.2 °C 4.2 °C 997.5 hPa Calm     93% 0.0 mm 0.00 W/m2
23:20 5.2 °C 4.2 °C 997.5 hPa Calm     93% 0.0 mm 0.00 W/m2
23:25 5.2 °C 4.2 °C 997.5 hPa Calm     93% 0.0 mm 0.00 W/m2
23:30 5.2 °C 4.2 °C 997.5 hPa Calm     93% 0.0 mm 0.00 W/m2
23:35 5.2 °C 4.2 °C 997.5 hPa Calm     93% 0.0 mm 0.00 W/m2
23:40 5.2 °C 4.2 °C 997.5 hPa Calm     93% 0.0 mm 0.00 W/m2
23:45 5.3 °C 4.3 °C 997.5 hPa Calm     93% 0.0 mm 0.00 W/m2
23:50 5.3 °C 4.3 °C 997.5 hPa Calm     93% 0.0 mm 0.00 W/m2
23:55 5.3 °C 4.3 °C 997.5 hPa Calm     93% 0.0 mm 0.00 W/m2